Hourly Weather Sobawiny

Today, 23 April, Friday

Time Temperature Precipitation Wind Pressure Humidity
00:00 +1°C° 0 mm 3 mps 745 mmHg 90%
01:00 0°C° 0 mm 3 mps 745 mmHg 91%
02:00 0°C° 0 mm 3 mps 746 mmHg 91%
03:00 -1°C° 0 mm 4 mps 746 mmHg 91%
04:00 -1°C° 0 mm 4 mps 746 mmHg 91%
05:00 0°C° 0 mm 4 mps 746 mmHg 83%
06:00 +1°C° 0 mm 4 mps 746 mmHg 76%
07:00 +2°C° 0 mm 5 mps 747 mmHg 68%
08:00 +3°C° 0 mm 5 mps 747 mmHg 61%
09:00 +6°C° 0 mm 5 mps 747 mmHg 54%
10:00 +7°C° 0 mm 6 mps 747 mmHg 47%
11:00 +7°C° 0.1 mm 6 mps 747 mmHg 46%
12:00 +8°C° 0.1 mm 7 mps 747 mmHg 46%
13:00 +8°C° 0.1 mm 7 mps 747 mmHg 45%
14:00 +6°C° 0.3 mm 7 mps 747 mmHg 52%
15:00 +6°C° 0.3 mm 7 mps 747 mmHg 59%
16:00 +5°C° 0.3 mm 7 mps 747 mmHg 65%
17:00 +4°C° 0.2 mm 7 mps 748 mmHg 71%
18:00 +3°C° 0.2 mm 6 mps 748 mmHg 76%
19:00 +2°C° 0.2 mm 5 mps 748 mmHg 82%
20:00 +2°C° 0.2 mm 5 mps 748 mmHg 86%
21:00 +1°C° 0.2 mm 4 mps 748 mmHg 89%
22:00 +2°C° 0.2 mm 3 mps 749 mmHg 92%
23:00 +1°C° 0 mm 3 mps 748 mmHg 92%

Tomorrow, 24 April, Saturday

Time Temperature Precipitation Wind Pressure Humidity
00:00 +1°C° 0 mm 3 mps 748 mmHg 92%
01:00 0°C° 0 mm 3 mps 748 mmHg 92%
02:00 0°C° 0 mm 3 mps 748 mmHg 92%
03:00 -1°C° 0 mm 3 mps 748 mmHg 92%
04:00 -1°C° 0 mm 3 mps 748 mmHg 92%
05:00 +1°C° 0 mm 3 mps 748 mmHg 84%
06:00 +2°C° 0 mm 3 mps 748 mmHg 76%
07:00 +4°C° 0 mm 3 mps 749 mmHg 68%
08:00 +5°C° 0 mm 4 mps 748 mmHg 60%
09:00 +6°C° 0 mm 4 mps 748 mmHg 52%
10:00 +8°C° 0 mm 4 mps 748 mmHg 44%
11:00 +8°C° 0 mm 5 mps 748 mmHg 45%
12:00 +8°C° 0 mm 5 mps 748 mmHg 45%
13:00 +9°C° 0 mm 5 mps 748 mmHg 45%
14:00 +8°C° 0.1 mm 5 mps 747 mmHg 51%
15:00 +8°C° 0.1 mm 5 mps 747 mmHg 57%
16:00 +7°C° 0.1 mm 5 mps 747 mmHg 63%
17:00 +6°C° 0.2 mm 4 mps 747 mmHg 69%
18:00 +5°C° 0.2 mm 4 mps 747 mmHg 74%
19:00 +4°C° 0.2 mm 3 mps 747 mmHg 80%
20:00 +4°C° 0 mm 3 mps 747 mmHg 83%
21:00 +3°C° 0 mm 4 mps 747 mmHg 85%
22:00 +1°C° 0 mm 4 mps 747 mmHg 88%
23:00 +1°C° 0 mm 3 mps 748 mmHg 89%

Day after tomorrow, 25 April, Sunday

Time Temperature Precipitation Wind Pressure Humidity
00:00 +2°C° 0 mm 2 mps 748 mmHg 91%
01:00 +2°C° 0 mm 1 mps 748 mmHg 92%
02:00 +1°C° 0 mm 1 mps 748 mmHg 92%
03:00 +1°C° 0 mm 1 mps 748 mmHg 92%
04:00 -2°C° 0 mm 2 mps 748 mmHg 91%
05:00 -1°C° 0 mm 2 mps 748 mmHg 83%
06:00 +2°C° 0 mm 2 mps 748 mmHg 75%
07:00 +2°C° 0 mm 3 mps 748 mmHg 67%
08:00 +3°C° 0 mm 3 mps 748 mmHg 56%
09:00 +5°C° 0 mm 4 mps 748 mmHg 46%
10:00 +6°C° 0 mm 4 mps 748 mmHg 35%
11:00 +6°C° 0 mm 5 mps 748 mmHg 37%
12:00 +6°C° 0 mm 5 mps 748 mmHg 38%
13:00 +5°C° 0 mm 6 mps 748 mmHg 40%
14:00 +6°C° 0.1 mm 5 mps 747 mmHg 42%
15:00 +6°C° 0.1 mm 5 mps 747 mmHg 45%
16:00 +6°C° 0.1 mm 5 mps 747 mmHg 47%
17:00 +5°C° 0.1 mm 5 mps 747 mmHg 53%
18:00 +3°C° 0.1 mm 4 mps 747 mmHg 59%
19:00 +2°C° 0.1 mm 3 mps 747 mmHg 65%
20:00 +1°C° 0 mm 3 mps 747 mmHg 68%
21:00 0°C° 0 mm 3 mps 747 mmHg 71%
22:00 0°C° 0 mm 3 mps 747 mmHg 74%
23:00 -1°C° 0 mm 3 mps 747 mmHg 77%

26 April, Monday

Time Temperature Precipitation Wind Pressure Humidity
00:00 -2°C° 0 mm 2 mps 747 mmHg 79%
01:00 -2°C° 0 mm 2 mps 747 mmHg 82%
02:00 -2°C° 0 mm 2 mps 747 mmHg 81%
03:00 -3°C° 0 mm 2 mps 747 mmHg 81%
04:00 -3°C° 0 mm 2 mps 747 mmHg 80%
05:00 -1°C° 0 mm 2 mps 747 mmHg 71%
06:00 0°C° 0 mm 3 mps 747 mmHg 63%
07:00 +2°C° 0 mm 3 mps 747 mmHg 54%
08:00 +3°C° 0 mm 4 mps 746 mmHg 50%
09:00 +5°C° 0 mm 4 mps 746 mmHg 45%
10:00 +6°C° 0 mm 4 mps 746 mmHg 41%
11:00 +6°C° 0.1 mm 5 mps 746 mmHg 42%
12:00 +6°C° 0.1 mm 5 mps 745 mmHg 43%
13:00 +7°C° 0.1 mm 5 mps 745 mmHg 44%
14:00 +7°C° 0.1 mm 5 mps 745 mmHg 43%
15:00 +7°C° 0.1 mm 5 mps 744 mmHg 42%
16:00 +7°C° 0.1 mm 5 mps 744 mmHg 41%
17:00 +5°C° 0 mm 4 mps 744 mmHg 50%
18:00 +3°C° 0 mm 3 mps 744 mmHg 59%
19:00 +3°C° 0 mm 2 mps 744 mmHg 69%
20:00 +2°C° 0 mm 2 mps 744 mmHg 72%
21:00 +1°C° 0 mm 2 mps 744 mmHg 75%
22:00 +1°C° 0 mm 2 mps 744 mmHg 78%
23:00 -1°C° 0 mm 2 mps 744 mmHg 79%

27 April, Tuesday

Time Temperature Precipitation Wind Pressure Humidity
00:00 -1°C° 0 mm 2 mps 744 mmHg 80%
01:00 -1°C° 0 mm 2 mps 744 mmHg 81%
02:00 -1°C° 0 mm 2 mps 744 mmHg 81%
03:00 -1°C° 0 mm 2 mps 744 mmHg 82%
04:00 -2°C° 0 mm 2 mps 744 mmHg 82%
05:00 +1°C° 0 mm 2 mps 744 mmHg 75%
06:00 +4°C° 0 mm 1 mps 744 mmHg 67%
07:00 +6°C° 0 mm 1 mps 744 mmHg 59%
08:00 +7°C° 0 mm 1 mps 743 mmHg 53%
09:00 +9°C° 0 mm 1 mps 743 mmHg 47%
10:00 +10°C° 0 mm 1 mps 743 mmHg 41%
11:00 +11°C° 0 mm 1 mps 742 mmHg 39%
12:00 +12°C° 0 mm 2 mps 742 mmHg 38%
13:00 +12°C° 0 mm 2 mps 741 mmHg 36%
14:00 +12°C° 0 mm 2 mps 741 mmHg 38%
15:00 +11°C° 0 mm 3 mps 741 mmHg 40%
16:00 +11°C° 0 mm 3 mps 740 mmHg 42%
17:00 +10°C° 0 mm 3 mps 740 mmHg 48%
18:00 +8°C° 0 mm 3 mps 739 mmHg 55%
19:00 +7°C° 0 mm 3 mps 739 mmHg 61%
20:00 +7°C° 0 mm 3 mps 739 mmHg 61%
21:00 +5°C° 0 mm 4 mps 738 mmHg 60%
22:00 +5°C° 0 mm 4 mps 738 mmHg 60%
23:00 +5°C° 0 mm 4 mps 738 mmHg 62%

28 April, Wednesday

Time Temperature Precipitation Wind Pressure Humidity
00:00 +5°C° 0 mm 4 mps 737 mmHg 64%
01:00 +5°C° 0 mm 4 mps 737 mmHg 66%
02:00 +5°C° 0 mm 4 mps 736 mmHg 71%
03:00 +5°C° 0 mm 3 mps 736 mmHg 77%
04:00 +5°C° 0 mm 3 mps 735 mmHg 82%
05:00 +5°C° 0.1 mm 3 mps 735 mmHg 85%
06:00 +5°C° 0.1 mm 3 mps 735 mmHg 87%
07:00 +6°C° 0.1 mm 2 mps 735 mmHg 90%
08:00 +6°C° 0.7 mm 2 mps 735 mmHg 91%
09:00 +6°C° 0.7 mm 2 mps 734 mmHg 93%
10:00 +7°C° 0.7 mm 1 mps 734 mmHg 94%
11:00 +7°C° 0.6 mm 1 mps 734 mmHg 95%
12:00 +7°C° 0.6 mm 1 mps 734 mmHg 95%
13:00 +8°C° 0.6 mm 1 mps 734 mmHg 95%
14:00 +8°C° 0.6 mm 1 mps 734 mmHg 95%
15:00 +7°C° 0.6 mm 2 mps 734 mmHg 95%
16:00 +7°C° 0.6 mm 2 mps 734 mmHg 95%
17:00 +7°C° 0 mm 2 mps 735 mmHg 95%
18:00 +5°C° 0 mm 3 mps 735 mmHg 96%
19:00 +5°C° 0 mm 3 mps 735 mmHg 96%
20:00 +5°C° 0 mm 3 mps 735 mmHg 96%
21:00 +5°C° 0 mm 3 mps 736 mmHg 96%
22:00 +4°C° 0 mm 3 mps 736 mmHg 96%
23:00 +4°C° 0.1 mm 3 mps 737 mmHg 95%
Show more